Location: Dampvalley
(47.9094°N, 6.1967°E)
Time: 14:15:00
(UTC+00:00)

Cosmos 2082 Rocket - Pass Details

Date: 05 March 2021
Orbit: 834 x 853 km, 71.0° (Epoch: 17 April)

Event Time Altitude Azimuth Distance (km) Brightness Sun altitude
Exits shadow 03:39:00 27° 324° (NW) 1,586 3.4 -25.5°
Drops below altitude 10° 03:43:15 10° 11° (NNE) 2,488 5.0 -24.8°
Sets 03:46:06 0° 24° (NNE) 3,425 6.0 -24.4°
